Location: Krakow
(50.0830°N, 19.9170°E)
Time: 11:39:09
(UTC+01:00)

Transit 2A - Pass Details

Date: 13 February 2023
Orbit: 591 x 964 km, 66.7° (Epoch: 21 March)

Event Time Altitude Azimuth Distance (km) Brightness Sun altitude
Rises 22:02:22 0° 323° (NW) 3,481 10.1 -46.6°
Reaches altitude 10° 22:04:50 10° 327° (NNW) 2,585 9.3 -46.9°
Enters shadow 22:05:27 13° 329° (NNW) 2,371 9.0 -46.9°
Maximum altitude 22:10:52 61° 48° (NE) 1,066 - -47.5°
Drops below altitude 10° 22:17:10 10° 128° (SE) 2,696 - -48.1°
Sets 22:19:47 0° 132° (SE) 3,641 - -48.4°
